Little Rock AFB, AR

12:57 PM CDT on October 17, 2017 (GMT -0500)
Little Rock Air Force Base

Weather History for KLRF - April, 2014

Change the Weather History Date:

Saturday, April 19, 2014

  Actual Average Record
Temperature  
Mean Temperature 62 °F -  
Max Temperature 77 °F 74 °F 90 °F (2011)
Min Temperature 46 °F 53 °F 30 °F (1983)
Degree Days  
Heating Degree Days 4    
Growing Degree Days 12 (Base 50)    
Moisture  
Dew Point 50 °F    
Average Humidity 66    
Maximum Humidity 95    
Minimum Humidity 37    
Precipitation  
Precipitation 0.00 in - - ()
Sea Level Pressure  
Sea Level Pressure 30.19 in    
Wind  
Wind Speed 2 mph (SSE)    
Max Wind Speed 8 mph    
Max Gust Speed -    
Visibility 10 miles    
Events Rain    
Averages and records for this station are not official NWS values.
T = Trace of Precipitation, MM = Missing Value Source: NWS Daily Summary

Daily Weather History Graph

Daily Weather History Graph

Search for Another Location

Airport or City:

Trip Planner

Search our weather history database for the weather conditions in past years. The results will help you decide how hot, cold, wet, or windy it might be!

Date:

Astronomy

Apr. 19, 2014 Rise Set
Actual Time 6:31 AM CDT 7:44 PM CDT
Civil Twilight 6:05 AM CDT 8:10 PM CDT
Nautical Twilight 5:34 AM CDT 8:41 PM CDT
Astronomical Twilight 5:01 AM CDT 9:14 PM CDT
Moon No Moon Rise 9:55 AM CDT (4/19)
Length of Visible Light 14h 05m
Length of Day
13h 12m
Waning Gibbous, 78% of the Moon is Illuminated
Apr 19
Waning Gibbous
Apr 22
Last Quarter
Apr 29
New
May 6
First Quarter
May 14
Full

Hourly Weather History & Observations

Time (CDT) Temp. Dew Point Humidity Pressure Visibility Wind Dir Wind Speed Gust Speed Precip Events Conditions
12:58 AM 51.1 °F 47.5 °F 87% 30.21 in 10.0 mi Calm Calm - 0.00 in   Clear
1:58 AM 50.0 °F 47.3 °F 90% 30.20 in 10.0 mi West 2.3 mph - N/A   Clear
2:58 AM 48.6 °F 46.6 °F 93% 30.19 in 10.0 mi Calm Calm - N/A   Clear
3:58 AM 48.0 °F 46.0 °F 93% 30.19 in 10.0 mi Calm Calm - N/A   Clear
4:58 AM 48.4 °F 46.8 °F 94% 30.19 in 10.0 mi West 1.2 mph - N/A   Clear
5:58 AM 46.9 °F 44.4 °F 91% 30.21 in 10.0 mi West 2.3 mph - N/A   Clear
6:58 AM 47.3 °F 45.9 °F 95% 30.23 in 10.0 mi West 1.2 mph - N/A   Clear
7:58 AM 53.1 °F 49.6 °F 88% 30.24 in 10.0 mi Calm Calm - 0.00 in   Clear
8:58 AM 62.1 °F 53.1 °F 72% 30.24 in 10.0 mi East 5.8 mph - 0.00 in   Clear
9:58 AM 67.1 °F 52.7 °F 60% 30.25 in 10.0 mi Variable 1.2 mph - N/A   Clear
10:58 AM 70.2 °F 52.5 °F 53% 30.26 in 10.0 mi Variable 3.5 mph - N/A   Clear
11:58 AM 71.6 °F 52.9 °F 52% 30.25 in 10.0 mi Calm Calm - N/A   Clear
12:58 PM 73.4 °F 51.6 °F 46% 30.23 in 10.0 mi Variable 4.6 mph - N/A   Clear
1:19 PM 75.2 °F 51.8 °F 44% 30.21 in 10.0 mi North 5.8 mph - N/A   Light Drizzle
1:29 PM 75.2 °F 51.8 °F 44% 30.21 in 10.0 mi Variable 3.5 mph - N/A   Partly Cloudy
1:58 PM 74.1 °F 52.3 °F 46% 30.21 in 10.0 mi Calm Calm - 0.00 in   Clear
2:58 PM 77.0 °F 50.0 °F 39% 30.18 in 10.0 mi ENE 4.6 mph - N/A Rain Light Rain
2:59 PM 77.0 °F 50.0 °F 39% 30.17 in 10.0 mi Variable 3.5 mph - N/A   Clear
3:58 PM 77.0 °F 50.4 °F 39% 30.16 in 10.0 mi South 4.6 mph - 0.00 in   Clear
4:58 PM 76.6 °F 48.4 °F 37% 30.14 in 10.0 mi SE 6.9 mph - N/A   Clear
5:58 PM 76.6 °F 49.6 °F 39% 30.14 in 10.0 mi SSE 8.1 mph - N/A   Clear
6:58 PM 74.8 °F 49.3 °F 40% 30.14 in 10.0 mi South 6.9 mph - N/A   Clear
7:58 PM 67.3 °F 52.9 °F 60% 30.15 in 10.0 mi SSE 3.5 mph - N/A   Clear
8:58 PM 59.9 °F 53.6 °F 80% 30.16 in 10.0 mi ENE 4.6 mph - N/A   Clear
9:58 PM 58.3 °F 52.3 °F 81% 30.17 in 10.0 mi Calm Calm - N/A   Clear
10:58 PM 56.7 °F 52.3 °F 85% 30.17 in 9.0 mi Calm Calm - N/A   Clear
11:58 PM 54.3 °F 51.4 °F 90% 30.16 in 10.0 mi Calm Calm - N/A   Clear